Location: The C. Gantt Observatory
(33.6981°N, 81.6836°W)
Time: 17:51:52
(UTC-04:00)

Iridium 30 - Visible Passes

Search period start: 28 April 2016 00:00
Search period end: 08 May 2016 00:00
Orbit: 776 x 779 km, 86.4° (Epoch: 28 April)

Date Brightness Start Highest point End Pass type
(mag) Time Alt. Az. Time Alt. Az. Time Alt. Az.
28 Apr 5.5 05:29:08 10° N 05:34:23 86° W 05:39:35 10° S visible
29 Apr 6.5 04:55:48 10° N 05:00:50 48° E 05:05:51 10° SSE visible
30 Apr 7.6 04:22:55 10° NNE 04:27:11 25° E 04:31:25 10° SE visible
30 Apr 6.4 06:03:21 10° NNW 06:07:48 29° W 06:12:15 10° SW visible
01 May 8.3 03:51:06 10° NE 03:53:23 13° ENE 03:55:40 10° ESE visible
01 May 5.6 05:29:21 10° N 05:34:27 57° W 05:39:32 10° SSW visible
02 May 5.7 04:55:45 10° N 05:00:58 73° E 05:06:10 10° S visible
03 May 6.9 04:22:34 10° NNE 04:27:23 37° E 04:32:10 10° SSE visible
03 May 6.9 06:04:04 10° NW 06:07:46 20° W 06:11:27 10° SW visible
04 May 7.9 03:49:58 10° NE 03:53:41 19° E 03:57:22 10° SE visible
04 May 6.1 05:29:41 10° NNW 05:34:29 38° W 05:39:15 10° SSW visible
05 May 5.4 04:55:51 10° N 05:01:04 75° W 05:05:26 15° S visible
06 May 6.1 04:22:25 10° N 04:27:33 56° E 04:31:23 18° SSE visible
06 May 7.3 06:05:19 10° NW 06:07:41 13° W 06:10:02 10° WSW visible
07 May 7.2 03:49:26 10° NNE 03:53:55 28° E 03:57:24 15° SE visible
07 May 6.6 05:30:13 10° NNW 05:34:28 26° W 05:37:50 14° SW visible
